Flag for Germany Weather past 2 weeks in Amberg, Bavaria, Germany

Now
64 °F

Sunny.


Feels Like: 64 °F
Forecast: 52 / 67 °F
Wind: 1 mph from Northeast

Location: Hohenfels

Current Time: Sep 1, 2015 at 8:23:35 AM

Latest Report: Sep 1, 2015 at 7:58 AM


Visibility: N/A

Pressure: 29.82 "Hg

Humidity: 73%

Dew point: 55 °F

Location of AmbergLocation

Historic Weather in Amberg — Graph

°F

Amberg temperature yesterday

Maximum temperature yesterday: 91 °F (at 2:58 PM)
Minimum temperature yesterday: 61 °F (at 5:58 AM)
Average temperature yesterday: 76 °F

Past Weeks' High & Low Weather Summary

 TemperatureHumidityPressure
High91 °F (Aug 30, 3:58 PM)100% (Aug 18, 5:00 AM)30.29 "Hg (Aug 18, 5:00 AM)
Low45 °F (Aug 22, 5:58 AM)28% (Aug 31, 4:58 PM)29.69 "Hg (Aug 24, 6:58 PM)
Average65 °F72%30.03 "Hg
* Reported Aug 17 7:04 AM — Sep 1 6:58 AM, Amberg, Weather by CustomWeather, © 2015

Note: Actual official high and low records may vary slightly from our data, if they occured in-between our weather recording intervals... More about our weather records

Advertising

Amberg weather history for previous 24 hours

 ConditionsComfort  
Time TempWeatherWind HumidityBarometerVisibility
6:58 AM
Tue, Sep 1
59 °FClear.1 mph82%29.88 "HgN/A
4:58 AM64 °FClear.1 mph73%29.81 "HgN/A
3:58 AM68 °FClear.5 mph60%29.81 "HgN/A
2:58 AM70 °FClear.5 mph57%29.81 "HgN/A
1:58 AM64 °FClear.2 mph78%29.82 "HgN/A
12:58 AM68 °FClear.3 mph64%29.82 "HgN/A
10:58 PM
Mon, Aug 31
70 °FClear.7 mph69%29.84 "HgN/A
9:58 PM72 °FClear.6 mph69%29.85 "HgN/A
8:58 PM73 °FClear.7 mph65%29.85 "HgN/A
7:58 PM81 °FSunny.5 mph51%29.84 "HgN/A
6:58 PM88 °FSunny.5 mph35%29.84 "HgN/A
5:58 PM91 °FSunny.3 mph30%29.83 "HgN/A
4:58 PM91 °FSunny.6 mph28%29.84 "HgN/A
3:58 PM91 °FPassing clouds.5 mph32%29.85 "HgN/A
2:58 PM91 °FPartly sunny.7 mph34%29.87 "HgN/A
1:58 PM88 °FScattered clouds.5 mph38%29.89 "HgN/A
12:58 PM90 °FScattered clouds.3 mph41%29.90 "HgN/A
11:58 AM88 °FSunny.3 mph46%29.92 "HgN/A
10:58 AM84 °FSunny.3 mph51%29.93 "HgN/A
9:58 AM79 °FSunny.2 mph58%29.94 "HgN/A
8:58 AM72 °FSunny.No wind69%29.96 "HgN/A
Weather by CustomWeather, © 2015

See weather overviewHow to use our weather pages